[[{"header":{"parameterUnit":"m.s-1","parameterCategory":1,"la1":30.2991,"la2":30.254,"lo1":-89.0895,"lo2":-89.0444,"dy":0.0017,"dx":0.0017,"nx":28,"ny":28,"refTime":"2025-04-30T03:00:00:Z","depth":0,"parameterNumber":2,"parameterNumberName":"U-component_of_WINDS"},"data":[0,0,0,0,0,0,0,0,0,0,0,0,0,0,0,0,0,0,0,0,0,0,0,0,0,0,0,0,0,0,0,0,0,0,0,0,0,0,0,0,0,0,0,0,0,0,0,0,0,0,0,0,0,0,0,0,0,0,-2.4652,-2.4652,0,-2.4708,-2.4708,-2.4709,-2.4678,-2.4676,-2.4675,-2.4673,-2.4731,-2.4734,-2.4737,0,0,0,0,0,0,0,0,0,0,0,0,0,-2.452,-2.4522,-2.4652,-2.4653,-2.4653,-2.4707,-2.4708,-2.4709,-2.4678,-2.4676,-2.4674,-2.4673,-2.473,-2.4734,-2.4737,0,0,0,0,0,0,0,0,0,0,0,0,0,-2.4576,-2.4523,-2.4652,-2.4644,-2.4644,-2.4707,-2.4708,-2.4709,-2.4678,-2.4676,-2.4674,-2.4672,-2.4729,-2.4733,-2.4738,-2.4812,0,0,-2.4751,-2.4753,0,0,0,0,0,0,0,0,-2.4573,-2.4581,-2.4645,-2.4645,-2.4645,-2.4683,-2.4683,-2.4744,-2.4679,-2.4666,-2.4673,-2.4671,-2.4717,-2.4722,-2.4738,-2.4814,-2.4817,-2.4752,-2.4754,-2.4756,-2.4758,0,0,0,0,0,0,0,-2.4569,-2.4579,-2.4674,-2.4646,-2.4646,-2.4639,-2.4644,-2.4694,-2.4704,-2.4666,-2.4664,-2.4671,-2.4717,-2.4734,-2.4739,-2.4818,-2.4752,-2.4756,-2.4758,-2.476,-2.4957,-2.496,0,0,0,0,0,0,-2.4566,-2.4576,-2.4672,-2.4676,-2.4603,-2.4643,-2.4649,-2.4673,-2.4703,-2.4705,-2.4673,-2.467,-2.4727,-2.4734,-2.4741,-2.4829,-2.4756,-2.4761,-2.4763,-2.4955,-2.4958,-2.496,0,0,0,0,0,0,-2.4563,-2.4575,-2.467,-2.4625,-2.4637,-2.4648,-2.4675,-2.4676,-2.4693,-2.4708,-2.471,-2.4689,-2.4726,-2.4735,-2.4794,-2.4831,-2.4763,-2.4767,-2.4952,-2.4956,-2.4959,-2.5006,0,0,0,0,0,0,-2.4559,-2.4574,-2.4602,-2.4626,-2.4639,-2.4722,-2.4677,-2.4678,-2.47,-2.4696,-2.4723,-2.4725,-2.4725,-2.4788,-2.4799,-2.4836,-2.477,-2.4948,-2.4953,-2.4958,-2.5001,-2.5011,-2.5019,0,0,0,0,0,-2.4555,-2.4613,-2.4603,-2.4615,-2.4674,-2.4724,-2.4732,-2.4729,-2.4703,-2.4732,-2.4742,-2.4724,-2.4825,-2.4794,-2.4806,-2.4845,-2.4946,-2.4952,-2.4958,-2.4997,-2.5009,-2.5019,0,0,0,0,0,0,-2.4593,-2.4616,-2.4606,-2.4673,-2.4697,-2.4719,-2.4754,-2.4742,-2.4774,-2.4769,-2.4765,-2.4771,-2.4833,-2.4845,-2.481,-2.4918,-2.4882,-2.489,-2.4908,-2.4919,-2.4928,-2.4924,-2.4774,0,0,0,0,0,-2.461,-2.4648,-2.4666,-2.4724,-2.4736,-2.4743,-2.4765,-2.4761,-2.4786,-2.4796,-2.481,-2.4835,-2.4872,-2.4896,-2.4931,-2.5003,-2.5009,-2.5036,-2.5045,-2.5052,-2.506,-2.5099,-2.5111,-2.4979,-2.4979,-2.4979,0,0,-2.4644,-2.4661,-2.4685,-2.4732,-2.475,-2.479,-2.4752,-2.4796,-2.4826,-2.4802,-2.4859,-2.4871,-2.4898,-2.4964,-2.4994,-2.4976,-2.5097,-2.506,-2.5065,-2.5069,-2.5106,-2.5118,-2.5129,-2.4983,-2.4983,-2.4982,0,0,-2.4726,-2.4743,-2.4793,-2.4812,-2.4839,-2.4844,-2.4856,-2.488,-2.4886,-2.4943,-2.4927,-2.4962,-2.5026,-2.5046,-2.5065,-2.5155,-2.5141,-2.5167,-2.5214,-2.5252,-2.5262,-2.5271,-2.5304,-2.5315,-2.5174,-2.5174,-2.5174,0,-2.4765,-2.4824,-2.4821,-2.4866,-2.4887,-2.4868,-2.4918,-2.4937,-2.4975,-2.499,-2.4969,-2.5049,-2.5066,-2.5136,-2.5159,-2.5174,-2.5188,-2.5163,-2.5261,-2.527,-2.5279,-2.5309,-2.5321,-2.5177,-2.5177,-2.5177,-2.5176,0,-2.4871,-2.4912,-2.495,-2.4986,-2.5011,-2.5059,-2.5063,-2.5089,-2.5083,-2.509,-2.5148,-2.5168,-2.5207,-2.5223,-2.5218,-2.5293,-2.5281,-2.5261,-2.5224,-2.5294,-2.5323,-2.5335,-2.5181,-2.518,-2.5179,-2.5179,0,0,-2.4979,-2.5013,-2.5027,-2.5043,-2.5072,-2.5104,-2.5151,-2.5188,-2.5211,-2.5238,-2.5277,-2.5332,-2.5313,-2.5335,-2.5332,-2.5365,-2.5435,-2.5341,-2.5341,-2.5357,-2.5519,-2.5534,-2.5547,-2.5426,-2.5428,-2.543,-2.5517,0,-2.5063,-2.5145,-2.5143,-2.5219,-2.5257,-2.524,-2.5281,-2.5303,-2.5311,-2.5344,-2.5353,-2.5392,-2.5365,-2.5377,-2.541,-2.542,-2.5468,-2.5414,-2.5463,-2.5464,-2.5456,-2.5562,-2.5578,-2.5659,-2.5528,-2.553,-2.5531,0,-2.5172,-2.5202,-2.5282,-2.5305,-2.5321,-2.5358,-2.5392,-2.5425,-2.545,-2.5453,-2.5477,-2.5469,-2.5517,-2.5479,-2.5545,-2.5509,-2.5529,-2.5537,-2.554,-2.5544,-2.5502,-2.5569,-2.5684,-2.5697,-2.5549,-2.5547,-2.5546,0,-2.5243,-2.5303,-2.5359,-2.5373,-2.5402,-2.5428,-2.5441,-2.5464,-2.5487,-2.5517,-2.5531,-2.5567,-2.5587,-2.5614,-2.5616,-2.5589,-2.5683,-2.5645,-2.5687,-2.5687,-2.5708,-2.5706,-2.5828,-2.5721,-2.5721,-2.5721,-2.5721,0,-2.5337,-2.5386,-2.5391,-2.5425,-2.548,-2.5477,-2.5532,-2.5543,-2.5563,-2.5599,-2.5587,-2.5621,-2.5621,-2.5656,-2.5658,-2.5713,-2.5722,-2.5726,-2.5726,-2.5727,-2.5726,-2.574,-2.5734,-2.5724,-2.5723,-2.5723,-2.5722,0,-2.5425,-2.543,-2.5489,-2.5511,-2.5518,-2.5557,-2.5576,-2.5609,-2.5615,-2.5661,-2.5672,-2.5682,-2.5723,-2.5727,-2.5775,-2.5776,-2.5842,-2.5836,-2.5833,-2.5832,-2.5874,-2.587,-2.6008,-2.6026,-2.5908,-2.5909,-2.591,0,-2.5484,-2.5522,-2.5548,-2.5571,-2.5585,-2.5623,-2.5646,-2.5645,-2.5669,-2.5701,-2.573,-2.5769,-2.58,-2.5866,-2.5878,-2.5915,-2.5909,-2.5955,-2.5915,-2.5915,-2.591,-2.5908,-2.5911,-2.5963,-2.5964,-2.5965,-2.5966,0,-2.559,-2.559,-2.5623,-2.5658,-2.5685,-2.5712,-2.5738,-2.5758,-2.576,-2.5788,-2.5829,-2.5854,-2.5902,-2.5941,-2.5977,-2.5991,-2.598,-2.5979,-2.599,-2.5992,-2.5989,-2.5991,-2.5854,-2.5976,-2.5975,-2.5974,-2.5974,-2.5973,-2.5665,-2.5698,-2.5721,-2.5758,-2.5777,-2.5801,-2.5833,-2.5843,-2.5877,-2.5916,-2.5914,-2.5959,-2.5984,-2.603,-2.6047,-2.6083,-2.6068,-2.6085,-2.6089,-2.6093,-2.6097,-2.5983,-2.6089,-2.6089,-2.6089,-2.6089,-2.6089,0,-2.577,-2.5784,-2.5818,-2.5854,-2.5883,-2.5869,-2.5897,-2.5922,-2.5962,-2.5986,-2.6017,-2.6064,-2.6102,-2.6117,-2.6155,-2.6181,-2.6176,-2.619,-2.6188,-2.6192,-2.6108,-2.6095,-2.6193,-2.6193,-2.6193,-2.6193,-2.6193,-2.6193,-2.5827,-2.5881,-2.5885,-2.5948,-2.5962,-2.6006,-2.6023,-2.6045,-2.6064,-2.6117,-2.6148,-2.6158,-2.6178,-2.6216,-2.6251,-2.6254,-2.6269,-2.6285,-2.6287,-2.6208,-2.6198,-2.6188,-2.6175,-2.6288,-2.6289,-2.6367,-2.6368,-2.6368]},{"header":{"parameterUnit":"m.s-1","parameterCategory":1,"la1":30.2991,"la2":30.254,"lo1":-89.0895,"lo2":-89.0444,"dy":0.0017,"dx":0.0017,"nx":28,"ny":28,"refTime":"2025-04-30T03:00:00:Z","depth":0,"parameterNumber":3,"parameterNumberName":"V-component_of_WINDS"},"data":[0,0,0,0,0,0,0,0,0,0,0,0,0,0,0,0,0,0,0,0,0,0,0,0,0,0,0,0,0,0,0,0,0,0,0,0,0,0,0,0,0,0,0,0,0,0,0,0,0,0,0,0,0,0,0,0,0,0,4.3476,4.3477,0,4.3544,4.3545,4.3546,4.3502,4.35,4.3498,4.3497,4.3561,4.3565,4.3568,0,0,0,0,0,0,0,0,0,0,0,0,0,4.3303,4.3307,4.3476,4.3477,4.3478,4.3544,4.3545,4.3546,4.3503,4.35,4.3498,4.3496,4.356,4.3564,4.3569,0,0,0,0,0,0,0,0,0,0,0,0,0,4.3375,4.3308,4.3476,4.3464,4.3464,4.3544,4.3545,4.3546,4.3503,4.35,4.3497,4.3494,4.3559,4.3564,4.3569,4.3663,0,0,4.3586,4.3588,0,0,0,0,0,0,0,0,4.3371,4.3382,4.3465,4.3465,4.3465,4.3512,4.3508,4.3585,4.3504,4.3488,4.3496,4.3493,4.3547,4.3553,4.3572,4.3666,4.3668,4.3586,4.3589,4.3592,4.3593,0,0,0,0,0,0,0,4.3366,4.3379,4.3503,4.3466,4.3466,4.3454,4.3461,4.3522,4.3533,4.3489,4.3486,4.3495,4.3546,4.3567,4.3573,4.3669,4.3586,4.3591,4.3594,4.3596,4.384,4.3843,0,0,0,0,0,0,4.3363,4.3375,4.3501,4.3505,4.341,4.346,4.3467,4.35,4.3533,4.3535,4.3498,4.3493,4.3559,4.3567,4.3576,4.3685,4.3592,4.3597,4.36,4.3837,4.3841,4.3844,0,0,0,0,0,0,4.336,4.3375,4.3498,4.3439,4.3454,4.3466,4.3502,4.3503,4.3524,4.3539,4.354,4.3517,4.3557,4.3568,4.3641,4.3687,4.3599,4.3604,4.3833,4.3838,4.3842,4.3906,0,0,0,0,0,0,4.3355,4.3374,4.3411,4.344,4.3457,4.3564,4.3505,4.3506,4.3534,4.3528,4.3558,4.356,4.3556,4.3633,4.3646,4.3692,4.3608,4.3829,4.3835,4.3841,4.39,4.3912,4.3923,0,0,0,0,0,4.3349,4.3425,4.3413,4.3428,4.3504,4.3567,4.3576,4.3571,4.3538,4.3573,4.3583,4.3559,4.368,4.3641,4.3656,4.3704,4.3826,4.3833,4.384,4.3894,4.391,4.3923,0,0,0,0,0,0,4.3399,4.3429,4.3415,4.3504,4.3534,4.3559,4.3605,4.3588,4.3626,4.3619,4.361,4.3617,4.3693,4.3706,4.3662,4.3795,4.3747,4.3758,4.3783,4.3798,4.381,4.3804,4.3613,0,0,0,0,0,4.3421,4.3472,4.3494,4.357,4.3586,4.3593,4.362,4.3614,4.3643,4.3655,4.367,4.3698,4.3742,4.3771,4.3813,4.3902,4.3906,4.3942,4.3954,4.3963,4.3972,4.4017,4.4033,4.3868,4.3868,4.3868,0,0,4.3466,4.3488,4.3521,4.3581,4.3603,4.3653,4.3604,4.3659,4.3696,4.3663,4.3732,4.3745,4.3775,4.3856,4.3892,4.3869,4.4019,4.3973,4.398,4.3983,4.4027,4.4042,4.4056,4.3873,4.3872,4.3871,0,0,4.3573,4.3596,4.3661,4.3684,4.3719,4.3723,4.3738,4.3767,4.3774,4.3844,4.382,4.3863,4.394,4.3962,4.3983,4.4098,4.4075,4.4111,4.4171,4.4216,4.4229,4.424,4.4279,4.4293,4.412,4.412,4.412,0,4.3624,4.37,4.3696,4.3754,4.378,4.3754,4.3818,4.384,4.3886,4.3903,4.3877,4.3972,4.3991,4.4075,4.4103,4.4122,4.4138,4.4107,4.4228,4.4239,4.425,4.4286,4.4301,4.4124,4.4124,4.4123,4.4123,0,4.376,4.3813,4.3861,4.3907,4.3939,4.3999,4.4002,4.4034,4.4026,4.4032,4.4102,4.4124,4.4169,4.4189,4.418,4.4272,4.4256,4.4229,4.4181,4.427,4.4304,4.4318,4.413,4.4128,4.4127,4.4126,0,0,4.39,4.3943,4.396,4.398,4.4015,4.4055,4.4114,4.4159,4.4185,4.4218,4.4265,4.433,4.4305,4.4329,4.4323,4.4363,4.4449,4.4331,4.4331,4.435,4.4548,4.4567,4.4583,4.4436,4.4439,4.4441,4.4545,0,4.4007,4.4111,4.4108,4.4204,4.4251,4.4227,4.4278,4.4304,4.4311,4.4351,4.4359,4.4405,4.437,4.4384,4.4422,4.4431,4.4489,4.4423,4.4477,4.4479,4.4468,4.4602,4.4622,4.4719,4.4559,4.4561,4.4563,0,4.4146,4.4184,4.4284,4.4312,4.4331,4.4377,4.4417,4.4457,4.4485,4.4488,4.4515,4.4502,4.4559,4.4511,4.4587,4.4543,4.4565,4.4572,4.4576,4.4579,4.4525,4.4606,4.475,4.4764,4.4584,4.4582,4.4581,0,4.4235,4.4311,4.4381,4.4398,4.4433,4.4465,4.448,4.4506,4.4533,4.4567,4.4584,4.4624,4.4646,4.4677,4.4674,4.464,4.4752,4.4704,4.4753,4.4753,4.4776,4.4774,4.4924,4.4794,4.4794,4.4793,4.4793,0,4.4354,4.4416,4.4421,4.4463,4.4531,4.4527,4.4593,4.4605,4.4628,4.4671,4.4653,4.4693,4.4688,4.4728,4.4726,4.4789,4.4799,4.4801,4.4799,4.4802,4.4801,4.4814,4.4806,4.4797,4.4796,4.4796,4.4795,0,4.4464,4.4471,4.4544,4.4571,4.4579,4.4627,4.4649,4.4688,4.4694,4.4748,4.476,4.4769,4.4815,4.4816,4.4869,4.4867,4.4943,4.4935,4.4934,4.4931,4.498,4.4974,4.5141,4.5162,4.5021,4.5022,4.5023,0,4.4539,4.4586,4.4617,4.4645,4.4663,4.4708,4.4736,4.4733,4.4762,4.4797,4.4831,4.4876,4.4911,4.4985,4.4995,4.5034,4.5025,4.5081,4.5031,4.5031,4.5023,4.502,4.5023,4.509,4.5092,4.5093,4.5094,0,4.467,4.467,4.4711,4.4753,4.4786,4.4819,4.4848,4.4872,4.4872,4.4905,4.4952,4.498,4.5033,4.5077,4.5115,4.5128,4.5111,4.511,4.5123,4.5124,4.5121,4.5121,4.4958,4.5106,4.5104,4.5104,4.5103,4.5102,4.4763,4.4803,4.4831,4.4876,4.4899,4.4927,4.4965,4.4976,4.5016,4.506,4.5055,4.5107,4.5132,4.5182,4.5199,4.5238,4.5218,4.5238,4.5242,4.5247,4.5251,4.5117,4.5245,4.5245,4.5244,4.5244,4.5244,0,4.489,4.4907,4.495,4.4992,4.5028,4.501,4.5042,4.5072,4.5118,4.5144,4.5179,4.5232,4.5274,4.5287,4.5327,4.5356,4.5349,4.5366,4.5363,4.5366,4.5267,4.5251,4.5371,4.5371,4.5371,4.5371,4.5371,4.5371,4.4961,4.5027,4.5031,4.5107,4.5123,4.5174,4.5194,4.5219,4.5239,4.53,4.5335,4.5344,4.5364,4.5405,4.5442,4.5445,4.5459,4.548,4.5479,4.5386,4.5373,4.5361,4.5345,4.5484,4.5484,4.5574,4.5575,4.5575]}]]